Total_Precipitation_Accumulation
0.47 0.47 0.45 0.43 0.42 0.42 0.44 0.45 0.47 0.48 0.47 0.44 0.42 0.40 0.39 0.36 0.35 0.36 0.40 0.41 0.39 0.39 0.38 0.42 0.45 0.53 0.52 0.47 0.50 0.58 0.71 0.78 0.68 0.85 0.85 0.59 0.41 0.32 0.27 0.21 0.16 0.13 0.11
0.45 0.45 0.46 0.42 0.39 0.38 0.37 0.37 0.38 0.40 0.38 0.33 0.29 0.27 0.27 0.27 0.26 0.27 0.29 0.28 0.26 0.25 0.25 0.28 0.30 0.33 0.37 0.38 0.35 0.39 0.52 0.65 0.66 0.73 0.92 0.85 0.56 0.40 0.35 0.29 0.20 0.15 0.17
0.45 0.45 0.42 0.42 0.42 0.38 0.32 0.29 0.28 0.29 0.28 0.23 0.20 0.18 0.18 0.20 0.23 0.25 0.23 0.20 0.19 0.18 0.17 0.20 0.20 0.25 0.35 0.43 0.38 0.39 0.45 0.57 0.63 0.65 0.84 0.94 0.71 0.50 0.46 0.40 0.34 0.34 0.22
0.42 0.40 0.38 0.36 0.35 0.37 0.33 0.28 0.25 0.24 0.25 0.23 0.20 0.19 0.18 0.18 0.19 0.18 0.19 0.18 0.16 0.16 0.15 0.15 0.16 0.23 0.32 0.43 0.44 0.46 0.48 0.49 0.58 0.66 0.77 0.86 0.85 0.67 0.64 0.57 0.50 0.48 0.40
0.43 0.40 0.38 0.37 0.33 0.30 0.27 0.23 0.20 0.17 0.15 0.15 0.16 0.16 0.15 0.15 0.13 0.12 0.13 0.14 0.13 0.11 0.11 0.10 0.09 0.12 0.14 0.20 0.29 0.41 0.49 0.54 0.58 0.66 0.73 0.81 0.80 0.72 0.64 0.63 0.61 0.64 0.63
0.33 0.31 0.33 0.33 0.32 0.31 0.24 0.19 0.15 0.12 0.10 0.09 0.10 0.10 0.08 0.08 0.08 0.06 0.07 0.07 0.05 0.04 0.04 0.04 0.03 0.03 0.06 0.10 0.12 0.19 0.28 0.42 0.59 0.73 0.76 0.79 0.83 0.81 0.77 0.72 0.72 0.72 0.75
0.24 0.26 0.27 0.30 0.32 0.30 0.21 0.17 0.12 0.08 0.07 0.07 0.07 0.06 0.04 0.04 0.04 0.04 0.02 0.01 0.01 0.01 0.01 0.01 0.00 0.00 0.02 0.05 0.06 0.06 0.08 0.11 0.21 0.48 0.67 0.69 0.67 0.71 0.78 0.85 0.86 0.90 0.97
0.26 0.29 0.29 0.27 0.29 0.28 0.22 0.17 0.13 0.10 0.09 0.08 0.08 0.06 0.03 0.01 0.01 0.01 0.00 0.00 0.00 0.00 0.00 0.00 0.00 0.00 0.00 0.01 0.04 0.07 0.04 0.02 0.04 0.14 0.21 0.26 0.32 0.42 0.57 0.75 0.90 1.00 1.14
0.29 0.31 0.30 0.26 0.26 0.25 0.23 0.21 0.19 0.18 0.14 0.10 0.10 0.09 0.05 0.01 0.00 0.00 0.00 0.02 0.01 0.00 0.00 0.00 0.00 0.00 0.00 0.00 0.01 0.04 0.03 0.01 0.00 0.01 0.04 0.07 0.11 0.16 0.24 0.40 0.57 0.80 1.11
0.26 0.24 0.21 0.21 0.24 0.26 0.26 0.25 0.23 0.21 0.15 0.10 0.10 0.10 0.07 0.03 0.00 0.00 0.00 0.01 0.02 0.01 0.01 0.00 0.00 0.00 0.00 0.00 0.00 0.01 0.02 0.01 0.01 0.01 0.02 0.02 0.02 0.03 0.06 0.14 0.25 0.44 0.72
0.24 0.22 0.21 0.20 0.22 0.24 0.28 0.26 0.25 0.20 0.16 0.13 0.12 0.11 0.10 0.04 0.01 0.00 0.00 0.01 0.01 0.01 0.01 0.00 0.00 0.00 0.00 0.00 0.00 0.00 0.00 0.00 0.01 0.01 0.02 0.03 0.02 0.02 0.02 0.04 0.08 0.15 0.29
0.24 0.22 0.21 0.22 0.14 0.14 0.23 0.25 0.26 0.23 0.16 0.14 0.12 0.11 0.09 0.06 0.02 0.00 0.00 0.00 0.00 0.01 0.01 0.00 0.00 0.00 0.00 0.00 0.00 0.00 0.00 0.00 0.00 0.01 0.01 0.02 0.02 0.01 0.01 0.01 0.04 0.08 0.14
0.25 0.27 0.27 0.23 0.20 0.19 0.20 0.20 0.19 0.18 0.16 0.12 0.10 0.10 0.09 0.07 0.04 0.01 0.00 0.00 0.00 0.01 0.01 0.00 0.00 0.00 0.00 0.00 0.00 0.00 0.00 0.00 0.00 0.00 0.01 0.01 0.01 0.01 0.01 0.02 0.03 0.05 0.07
0.26 0.29 0.32 0.33 0.29 0.26 0.26 0.24 0.17 0.15 0.14 0.12 0.10 0.08 0.07 0.06 0.04 0.04 0.03 0.02 0.01 0.01 0.01 0.01 0.00 0.00 0.00 0.00 0.00 0.00 0.00 0.00 0.00 0.01 0.02 0.02 0.02 0.02 0.02 0.02 0.02 0.04 0.05
0.22 0.24 0.28 0.33 0.35 0.33 0.30 0.27 0.23 0.22 0.16 0.15 0.13 0.09 0.07 0.05 0.02 0.02 0.02 0.02 0.02 0.01 0.01 0.01 0.01 0.01 0.01 0.01 0.00 0.00 0.00 0.00 0.00 0.01 0.01 0.02 0.02 0.03 0.04 0.04 0.04 0.04 0.05
0.20 0.23 0.25 0.25 0.26 0.24 0.25 0.14 0.08 0.09 0.04 0.03 0.04 0.04 0.03 0.01 0.01 0.01 0.01 0.01 0.01 0.01 0.01 0.03 0.04 0.04 0.03 0.02 0.01 0.01 0.01 0.01 0.01 0.01 0.01 0.01 0.02 0.02 0.04 0.06 0.06 0.06 0.08
0.12 0.15 0.18 0.18 0.18 0.16 0.16 0.12 0.05 0.01 0.00 0.00 0.00 0.00 0.00 0.00 0.00 0.00 0.00 0.01 0.01 0.01 0.01 0.03 0.05 0.05 0.04 0.03 0.03 0.02 0.02 0.02 0.02 0.01 0.02 0.02 0.02 0.02 0.03 0.05 0.05 0.06 0.08
0.05 0.06 0.08 0.10 0.11 0.09 0.08 0.08 0.06 0.02 0.00 0.00 0.00 0.00 0.00 0.00 0.00 0.00 0.00 0.00 0.00 0.00 0.00 0.01 0.03 0.03 0.03 0.03 0.03 0.02 0.02 0.02 0.02 0.02 0.02 0.03 0.03 0.03 0.03 0.04 0.05 0.07 0.09
0.04 0.04 0.03 0.04 0.06 0.04 0.04 0.04 0.03 0.02 0.01 0.01 0.00 0.00 0.00 0.00 0.00 0.00 0.00 0.00 0.00 0.00 0.00 0.00 0.00 0.01 0.01 0.01 0.01 0.01 0.01 0.01 0.02 0.02 0.02 0.03 0.03 0.03 0.05 0.06 0.06 0.06 0.07
0.07 0.03 0.03 0.04 0.02 0.02 0.02 0.01 0.01 0.01 0.01 0.01 0.00 0.00 0.00 0.00 0.00 0.00 0.00 0.00 0.00 0.00 0.00 0.00 0.00 0.00 0.00 0.00 0.00 0.00 0.00 0.01 0.01 0.01 0.01 0.01 0.01 0.02 0.03 0.05 0.06 0.07 0.07
0.10 0.04 0.01 0.01 0.01 0.01 0.01 0.01 0.01 0.00 0.00 0.00 0.00 0.00 0.00 0.00 0.00 0.00 0.00 0.00 0.00 0.00 0.00 0.00 0.00 0.00 0.00 0.00 0.00 0.00 0.00 0.00 0.00 0.00 0.00 0.00 0.00 0.01 0.01 0.02 0.03 0.04 0.05
0.14 0.07 0.02 0.01 0.01 0.01 0.00 0.00 0.00 0.00 0.00 0.00 0.00 0.00 0.00 0.00 0.00 0.00 0.00 0.00 0.00 0.00 0.00 0.00 0.00 0.00 0.00 0.00 0.00 0.00 0.00 0.00 0.00 0.00 0.00 0.00 0.00 0.00 0.01 0.01 0.03 0.04 0.04
0.16 0.10 0.06 0.02 0.00 0.00 0.00 0.00 0.00 0.00 0.00 0.00 0.00 0.00 0.00 0.00 0.00 0.00 0.00 0.00 0.00 0.00 0.00 0.00 0.00 0.00 0.00 0.00 0.00 0.00 0.00 0.00 0.00 0.00 0.00 0.00 0.00 0.00 0.01 0.02 0.03 0.04 0.05
0.15 0.11 0.08 0.04 0.01 0.00 0.00 0.00 0.00 0.00 0.00 0.00 0.00 0.00 0.00 0.00 0.00 0.00 0.00 0.00 0.00 0.00 0.00 0.00 0.00 0.00 0.00 0.01 0.01 0.01 0.01 0.01 0.00 0.00 0.00 0.00 0.00 0.01 0.01 0.02 0.03 0.04 0.07
0.16 0.12 0.08 0.05 0.03 0.01 0.00 0.00 0.00 0.00 0.00 0.00 0.00 0.00 0.00 0.00 0.00 0.00 0.00 0.00 0.00 0.00 0.00 0.00 0.01 0.01 0.01 0.01 0.03 0.04 0.01 0.00 0.00 0.00 0.00 0.00 0.00 0.01 0.02 0.03 0.04 0.05 0.07
0.17 0.13 0.09 0.05 0.03 0.02 0.01 0.00 0.00 0.00 0.00 0.00 0.00 0.00 0.00 0.00 0.00 0.00 0.00 0.01 0.01 0.01 0.02 0.02 0.02 0.02 0.02 0.03 0.04 0.02 0.00 0.00 0.00 0.00 0.00 0.00 0.00 0.01 0.02 0.02 0.02 0.02 0.03